| time (UTC) | temp C | wind direction | speed KPH | gust KPH | rain 1hr cm | rain 24hr cm | rain mn cm | humidity % | barometer mb |
| 20260503213107 | 27 | 59 | 8.0 | 22.5 | 0.00 | 0.00 | 0.00 | 28 | 1014.6 |
| 20260503211535 | 27 | 61 | 8.0 | 17.7 | 0.00 | 0.00 | 0.00 | 28 | 1014.9 |
| 20260503210111 | 27 | 41 | 9.7 | 20.9 | 0.00 | 0.00 | 0.00 | 28 | 1015.1 |
| 20260503204535 | 27 | 55 | 9.7 | 19.3 | 0.00 | 0.00 | 0.00 | 29 | 1015.2 |
| 20260503203033 | 27 | 65 | 9.7 | 22.5 | 0.00 | 0.00 | 0.00 | 29 | 1015.4 |
| 20260503201531 | 27 | 71 | 11.3 | 30.6 | 0.00 | 0.00 | 0.00 | 29 | 1015.5 |
| 20260503193037 | 26 | 92 | 11.3 | 25.7 | 0.00 | 0.00 | 0.00 | 30 | 1015.9 |
| 20260503191536 | 26 | 68 | 12.9 | 24.1 | 0.00 | 0.00 | 0.00 | 31 | 1016.0 |
| 20260503183030 | 25 | 333 | 6.4 | 11.3 | 0.00 | 0.00 | 0.00 | 41 | 1016.4 |
| 20260503181535 | 25 | 341 | 6.4 | 11.3 | 0.00 | 0.00 | 0.00 | 43 | 1016.5 |
| 20260503180036 | 24 | 344 | 3.2 | 9.7 | 0.00 | 0.00 | 0.00 | 43 | 1016.6 |
| 20260503174653 | 23 | 357 | 4.8 | 11.3 | 0.00 | 0.00 | 0.00 | 43 | 1016.7 |
| 20260503173033 | 24 | 3 | 4.8 | 8.0 | 0.00 | 0.00 | 0.00 | 42 | 1016.9 |
| 20260503170152 | 24 | 352 | 1.6 | 6.4 | 0.00 | 0.00 | 0.00 | 43 | 1017.0 |
| 20260503090151 | 8 | 178 | 4.8 | 6.4 | 0.00 | 0.00 | 0.00 | 88 | 1017.0 |
| 20260503081606 | 8 | 143 | 3.2 | 6.4 | 0.00 | 0.00 | 0.00 | 86 | 1016.9 |
| 20260503071533 | 10 | 165 | 1.6 | 4.8 | 0.00 | 0.00 | 0.00 | 81 | 1017.0 |
| 20260503060106 | 12 | 179 | 6.4 | 8.0 | 0.00 | 0.00 | 0.00 | 77 | 1017.0 |
| 20260503054537 | 12 | 179 | 3.2 | 6.4 | 0.00 | 0.00 | 0.00 | 75 | 1016.9 |
| 20260503053035 | 13 | 183 | 1.6 | 6.4 | 0.00 | 0.00 | 0.00 | 72 | 1016.8 |
| 20260503051535 | 14 | 97 | 0.0 | 4.8 | 0.00 | 0.00 | 0.00 | 68 | 1016.7 |
| 20260503044536 | 16 | 204 | 1.6 | 4.8 | 0.00 | 0.00 | 0.00 | 59 | 1016.7 |
| 20260503041535 | 16 | 183 | 6.4 | 11.3 | 0.00 | 0.00 | 0.00 | 63 | 1016.5 |
| 20260503040041 | 16 | 162 | 4.8 | 6.4 | 0.00 | 0.00 | 0.00 | 61 | 1016.4 |
| 20260503034537 | 17 | 174 | 6.4 | 11.3 | 0.00 | 0.00 | 0.00 | 59 | 1016.1 |
| 20260503033035 | 18 | 171 | 6.4 | 11.3 | 0.00 | 0.00 | 0.00 | 58 | 1015.9 |
| 20260503031548 | 18 | 162 | 6.4 | 12.9 | 0.00 | 0.00 | 0.00 | 57 | 1015.6 |
| 20260503024534 | 19 | 168 | 4.8 | 8.0 | 0.00 | 0.00 | 0.00 | 58 | 1015.2 |
| 20260503023108 | 20 | 180 | 4.8 | 6.4 | 0.00 | 0.00 | 0.00 | 59 | 1015.1 |
| 20260503021534 | 20 | 181 | 3.2 | 6.4 | 0.00 | 0.00 | 0.00 | 57 | 1015.1 |
| 20260503014532 | 22 | 176 | 3.2 | 8.0 | 0.00 | 0.00 | 0.00 | 45 | 1015.1 |
| 20260503011529 | 23 | 133 | 4.8 | 14.5 | 0.00 | 0.00 | 0.00 | 38 | 1015.1 |
| 20260503010108 | 23 | 160 | 1.6 | 14.5 | 0.00 | 0.00 | 0.00 | 37 | 1015.1 |
| 20260503004535 | 23 | 81 | 4.8 | 12.9 | 0.00 | 0.00 | 0.00 | 36 | 1015.1 |
| 20260503003035 | 23 | 97 | 8.0 | 19.3 | 0.00 | 0.00 | 0.00 | 36 | 1015.1 |
| 20260503001536 | 24 | 110 | 8.0 | 22.5 | 0.00 | 0.00 | 0.00 | 35 | 1015.1 |
| 20260503000037 | 24 | 107 | 6.4 | 22.5 | 0.00 | 0.00 | 0.00 | 35 | 1015.1 |
| 20260502234537 | 25 | 60 | 4.8 | 17.7 | 0.00 | 0.00 | 0.00 | 35 | 1015.3 |
| 20260502233038 | 25 | 81 | 9.7 | 24.1 | 0.00 | 0.00 | 0.00 | 34 | 1015.4 |
| 20260502231534 | 25 | 60 | 12.9 | 22.5 | 0.00 | 0.00 | 0.00 | 34 | 1015.6 |
| 20260502230043 | 25 | 64 | 12.9 | 32.2 | 0.00 | 0.00 | 0.00 | 34 | 1015.8 |
| 20260502224536 | 25 | 66 | 11.3 | 24.1 | 0.00 | 0.00 | 0.00 | 35 | 1015.9 |
| 20260502223033 | 25 | 96 | 14.5 | 24.1 | 0.00 | 0.00 | 0.00 | 34 | 1016.0 |
| 20260502221534 | 25 | 40 | 14.5 | 30.6 | 0.00 | 0.00 | 0.00 | 40 | 1016.1 |
| 20260502220038 | 24 | 14 | 6.4 | 17.7 | 0.00 | 0.00 | 0.00 | 42 | 1016.1 |
| 20260502214534 | 23 | 341 | 8.0 | 17.7 | 0.00 | 0.00 | 0.00 | 46 | 1016.4 |